Flag for U.S.A. Weather past 2 weeks in Grand Junction, Colorado, U.S.A.

Now
81 °F

Sunny.


Feels Like: 80 °F
Forecast: 62 / 85 °F
Wind: 5 mph from Northwest

Location: Walker Field

Current Time: Sep 18, 2014 at 7:56:53 PM

Latest Report: Sep 18, 2014 at 6:53 PM


Visibility: 10 mi

Pressure: 29.69 "Hg

Humidity: 29%

Dew point: 46 °F

Location of Grand JunctionLocation

Historic Weather in Grand Junction — Graph

°F

Grand Junction temperature yesterday

Maximum temperature yesterday: 87 °F (at 4:53 PM)
Minimum temperature yesterday: 56 °F (at 6:53 AM)
Average temperature yesterday: 71 °F

Past Weeks' High & Low Weather Summary

 TemperatureHumidityPressure
High90 °F (Sep 3, 5:53 PM)100% (Sep 9, 4:53 AM)30.17 "Hg (Sep 9, 4:53 AM)
Low46 °F (Sep 12, 6:53 AM)12% (Sep 3, 5:53 PM)29.59 "Hg (Sep 3, 5:53 PM)
Average67 °F45%29.92 "Hg
* Reported Sep 3 5:53 PM — Sep 18 5:53 PM, Grand Junction, Weather by CustomWeather, © 2014

Note: Actual official high and low records may vary slightly from our data, if they occured in-between our weather recording intervals... More about our weather records

Advertising

Grand Junction weather history for previous 24 hours

 ConditionsComfort  
Time TempWeatherWind HumidityBarometerVisibility
5:53 PM
Sep 18
84 °FSunny.9 mph26%29.67 "Hg10 mi
4:53 PM86 °FSunny.10 mph25%29.67 "Hg10 mi
3:53 PM86 °FSunny.8 mph25%29.70 "Hg10 mi
2:53 PM85 °FSunny.7 mph24%29.72 "Hg10 mi
1:53 PM84 °FSunny.3 mph25%29.75 "Hg10 mi
12:53 PM81 °FSunny.No wind24%29.80 "Hg10 mi
11:53 AM76 °FSunny.6 mph27%29.84 "Hg10 mi
10:53 AM74 °FSunny.6 mph31%29.86 "Hg10 mi
9:53 AM71 °FSunny.6 mph35%29.86 "Hg10 mi
8:53 AM65 °FSunny.7 mph44%29.87 "Hg10 mi
7:53 AM60 °FClear.5 mph49%29.88 "Hg10 mi
6:53 AM57 °FClear.7 mph53%29.85 "Hg10 mi
5:53 AM59 °FClear.8 mph49%29.82 "Hg10 mi
4:53 AM63 °FClear.9 mph43%29.80 "Hg10 mi
3:53 AM60 °FClear.8 mph47%29.81 "Hg10 mi
2:53 AM64 °FClear.8 mph43%29.80 "Hg10 mi
1:53 AM65 °FClear.10 mph40%29.81 "Hg10 mi
12:53 AM60 °FClear.6 mph46%29.83 "Hg10 mi
11:53 PM
Sep 17
64 °FClear.No wind38%29.82 "Hg10 mi
10:53 PM69 °FClear.6 mph31%29.81 "Hg10 mi
9:53 PM70 °FClear.3 mph32%29.80 "Hg10 mi
8:53 PM72 °FClear.9 mph28%29.78 "Hg10 mi
7:53 PM76 °FSunny.8 mph24%29.77 "Hg10 mi
Weather by CustomWeather, © 2014

See weather overviewHow to use our weather pages